Location: Keewatin
(47.4004°N, 93.0827°W)
Time: 17:59:10
(UTC+00:00)

ISS - Visible Passes

Search period start: 19 January 2021 00:00
Search period end: 29 January 2021 00:00
Orbit: 418 x 419 km, 51.6° (Epoch: 20 January)

Date Brightness Start Highest point End Pass type
(mag) Time Alt. Az. Time Alt. Az. Time Alt. Az.
19 Jan -1.3 01:26:52 10° SW 01:27:53 18° SSW 01:27:53 18° SSW visible
20 Jan -2.6 00:39:30 10° SSW 00:42:24 29° SE 00:42:24 29° SE visible
20 Jan -1.9 23:52:25 10° S 23:54:54 19° SE 23:56:50 13° E visible
21 Jan -1.8 01:28:00 10° WSW 01:29:48 30° WSW 01:29:48 30° WSW visible
22 Jan -3.8 00:40:17 10° SW 00:43:38 67° SSE 00:44:10 54° E visible
22 Jan -3.1 23:52:42 10° SW 23:55:56 44° SSE 23:58:29 15° ENE visible
23 Jan -1.9 01:29:26 10° W 01:31:26 30° WNW 01:31:26 30° WNW visible
24 Jan -3.6 00:41:33 10° WSW 00:44:54 64° NNW 00:45:41 46° NE visible
24 Jan -3.8 23:53:44 10° WSW 23:57:06 86° NNW 23:59:54 14° ENE visible
25 Jan -1.8 01:30:57 10° WNW 01:32:50 26° NW 01:32:50 26° NW visible
26 Jan -3.0 00:43:01 10° W 00:46:16 43° N 00:47:01 36° NNE visible
26 Jan -3.2 23:55:05 10° W 23:58:23 50° NNW 00:01:11 13° ENE visible
27 Jan -1.7 01:32:21 10° WNW 01:34:08 25° NW 01:34:08 25° NW visible
28 Jan -2.9 00:44:28 10° WNW 00:47:39 38° N 00:48:17 34° NNE visible
